Newark Heath, OH

4:17 AM EST on December 15, 2017 (GMT -0500)
Newark Heath

Weather History for KVTA - March, 2013

Change the Weather History Date:

Saturday, March 16, 2013

  Actual Average Record
Temperature  
Mean Temperature 44 °F -  
Max Temperature 54 °F 50 °F 78 °F (1945)
Min Temperature 34 °F 29 °F 10 °F (1992)
Degree Days  
Heating Degree Days 22    
Moisture  
Dew Point 39 °F    
Average Humidity 85    
Maximum Humidity 93    
Minimum Humidity 71    
Precipitation  
Precipitation 0.12 in - - ()
Sea Level Pressure  
Sea Level Pressure 29.76 in    
Wind  
Wind Speed 4 mph (NW)    
Max Wind Speed 17 mph    
Max Gust Speed 22 mph    
Visibility 6 miles    
Events Rain    
Averages and records for this station are not official NWS values.
T = Trace of Precipitation, MM = Missing Value Source: NWS Daily Summary

Daily Weather History Graph

Daily Weather History Graph

Search for Another Location

Airport or City:

Trip Planner

Search our weather history database for the weather conditions in past years. The results will help you decide how hot, cold, wet, or windy it might be!

Date:

Astronomy

Mar. 16, 2013 Rise Set
Actual Time 7:39 AM EDT 7:38 PM EDT
Civil Twilight 7:12 AM EDT 8:05 PM EDT
Nautical Twilight 6:40 AM EDT 8:36 PM EDT
Astronomical Twilight 6:09 AM EDT 9:08 PM EDT
Moon 10:08 AM EDT (3/16) No Moon Set
Length of Visible Light 12h 52m
Length of Day
11h 58m
Waxing Crescent, 23% of the Moon is Illuminated
Mar 16
Waxing Crescent
Mar 19
First Quarter
Mar 27
Full
Apr 3
Last Quarter
Apr 10
New

Hourly Weather History & Observations

Time (EDT) Temp. Windchill Dew Point Humidity Pressure Visibility Wind Dir Wind Speed Gust Speed Precip Events Conditions
12:54 AM 43.0 °F - 41.0 °F 93% 29.83 in 4.0 mi Calm Calm - 0.02 in Rain Light Rain
1:52 AM 42.8 °F - 39.2 °F 87% 29.78 in 2.5 mi Calm Calm - 0.01 in Rain Light Rain
1:54 AM 42.1 °F - 39.9 °F 92% 29.80 in 2.5 mi Calm Calm - 0.01 in Rain Light Rain
2:07 AM 42.8 °F - 39.2 °F 87% 29.77 in 3.0 mi Calm Calm - 0.00 in Rain Light Rain
2:23 AM 42.8 °F - 39.2 °F 87% 29.76 in 2.5 mi Calm Calm - 0.00 in Rain Light Rain
2:31 AM 42.8 °F 41.1 °F 39.2 °F 87% 29.75 in 3.0 mi SSE 3.5 mph - 0.00 in Rain Light Rain
2:54 AM 42.1 °F - 39.9 °F 92% 29.75 in 3.0 mi Calm Calm - 0.00 in   Overcast
3:09 AM 42.8 °F 41.1 °F 39.2 °F 87% 29.72 in 2.5 mi NE 3.5 mph - 0.00 in Rain Light Rain
3:31 AM 42.8 °F - 39.2 °F 87% 29.72 in 3.0 mi Calm Calm - 0.00 in   Overcast
3:52 AM 42.8 °F 40.1 °F 39.2 °F 87% 29.71 in 3.0 mi SE 4.6 mph - 0.00 in   Overcast
3:54 AM 42.1 °F 40.2 °F 39.9 °F 92% 29.71 in 3.0 mi SE 3.5 mph - 0.00 in   Overcast
4:33 AM 42.8 °F - 41.0 °F 93% 29.71 in 2.0 mi Calm Calm - 0.06 in Rain Rain
4:40 AM 42.8 °F 41.1 °F 41.0 °F 93% 29.70 in 1.8 mi SSE 3.5 mph - 0.08 in Rain Rain
4:49 AM 42.8 °F 41.1 °F 39.2 °F 87% 29.68 in 2.5 mi ESE 3.5 mph - 0.09 in Rain Light Rain
4:54 AM 42.1 °F - 39.9 °F 92% 29.69 in 2.5 mi Calm Calm - 0.09 in Rain Light Rain
5:10 AM 42.8 °F - 39.2 °F 87% 29.68 in 3.0 mi Calm Calm - 0.00 in   Overcast
5:54 AM 43.0 °F 41.3 °F 41.0 °F 93% 29.68 in 5.0 mi South 3.5 mph - 0.00 in   Overcast
6:54 AM 44.1 °F - 41.0 °F 89% 29.68 in 6.0 mi Calm Calm - N/A   Overcast
7:54 AM 43.0 °F 41.3 °F 41.0 °F 93% 29.66 in 4.0 mi ENE 3.5 mph - N/A   Partly Cloudy
8:06 AM 42.8 °F - 41.0 °F 93% 29.65 in 2.0 mi Calm Calm - N/A   Partly Cloudy
8:14 AM 42.8 °F - 41.0 °F 93% 29.65 in 1.2 mi Calm Calm - N/A   Partly Cloudy
8:51 AM 44.6 °F 43.1 °F 42.8 °F 93% 29.64 in 2.5 mi SSE 3.5 mph - N/A   Partly Cloudy
8:54 AM 44.1 °F 42.5 °F 42.1 °F 93% 29.65 in 3.0 mi South 3.5 mph - N/A   Partly Cloudy
9:45 AM 46.4 °F 45.2 °F 42.8 °F 87% 29.62 in 10.0 mi South 3.5 mph - N/A   Partly Cloudy
9:54 AM 48.0 °F - 43.0 °F 83% 29.63 in 10.0 mi SSW 5.8 mph - N/A   Partly Cloudy
10:54 AM 51.1 °F - 45.0 °F 80% 29.61 in 10.0 mi West 3.5 mph - N/A   Clear
11:18 AM 51.8 °F - 44.6 °F 76% 29.61 in 10.0 mi Variable 4.6 mph - N/A   Mostly Cloudy
11:54 AM 53.1 °F - 46.0 °F 77% 29.62 in 10.0 mi West 11.5 mph - N/A   Overcast
12:54 PM 53.1 °F - 45.0 °F 74% 29.65 in 9.0 mi WNW 11.5 mph - N/A   Overcast
1:54 PM 53.1 °F - 44.1 °F 71% 29.69 in 9.0 mi NW 16.1 mph - N/A   Overcast
2:54 PM 50.0 °F - 43.0 °F 77% 29.73 in 7.0 mi NW 12.7 mph 21.9 mph N/A   Overcast
3:54 PM 48.0 °F - 41.0 °F 77% 29.77 in 6.0 mi WNW 16.1 mph 21.9 mph N/A   Haze
4:17 PM 46.4 °F 40.4 °F 39.2 °F 76% 29.78 in 4.0 mi WNW 13.8 mph - N/A   Haze
4:45 PM 42.8 °F 36.2 °F 39.2 °F 87% 29.81 in 4.0 mi WNW 12.7 mph - N/A   Overcast
4:54 PM 42.1 °F 33.9 °F 37.9 °F 85% 29.83 in 4.0 mi NW 17.3 mph 21.9 mph N/A   Overcast
5:54 PM 39.9 °F 32.1 °F 35.1 °F 83% 29.86 in 10.0 mi NNW 13.8 mph - N/A   Overcast
6:02 PM 39.2 °F 31.2 °F 33.8 °F 81% 29.85 in 10.0 mi NW 13.8 mph - N/A   Overcast
6:54 PM 37.9 °F 30.5 °F 32.0 °F 79% 29.91 in 10.0 mi NNW 11.5 mph - N/A   Overcast
7:54 PM 36.0 °F 29.0 °F 30.9 °F 82% 29.94 in 10.0 mi NNW 9.2 mph - N/A   Overcast
8:12 PM 35.6 °F 28.6 °F 30.2 °F 81% 29.94 in 10.0 mi NNW 9.2 mph - N/A   Overcast
8:37 PM 35.6 °F 28.6 °F 30.2 °F 81% 29.95 in 10.0 mi NNW 9.2 mph - N/A   Overcast
8:54 PM 35.1 °F 27.4 °F 28.9 °F 78% 29.97 in 10.0 mi NNW 10.4 mph - N/A   Overcast
9:54 PM 35.1 °F 29.3 °F 28.9 °F 78% 29.98 in 10.0 mi NNW 6.9 mph - N/A   Overcast
10:54 PM 34.0 °F 28.0 °F 28.9 °F 82% 30.00 in 10.0 mi NNW 6.9 mph - N/A   Overcast
11:54 PM 34.0 °F 31.0 °F 28.9 °F 82% 30.02 in 10.0 mi NNE 3.5 mph - N/A   Overcast